Overview Statistics Trail Chart Weather Telemetry Raw packets
 

This is the latest recevied weather packets stored in our database for station/object IW4EGP-3. If no packets are shown the sender has not sent any weather packets the latest 10 day(s).

<< 54 55 56 57 58 59 >>
Time Temp. Humidity Pressure Rain* Wind** Luminosity Snow
1787739733 30.56° C 50% 1018.8 hPa 0 mm - - -
1787738833 30.56° C 49% 1018.8 hPa 0 mm - - -
1787737932 30.56° C 49% 1018.9 hPa 0 mm - - -
1787737032 30.56° C 50% 1019 hPa 0 mm - - -
1787736133 30° C 51% 1019.1 hPa 0 mm - - -
1787735231 29.44° C 51% 1019.1 hPa 0 mm - - -
1787734406 30.56° C 50% 1018.8 hPa 0 mm - - -
1787734334 30.56° C 50% 1018.8 hPa 0 mm - - -
1787733433 28.89° C 53% 1018.7 hPa 0 mm - - -
1787732533 28.89° C 54% 1019 hPa 0 mm - - -
1787731692 27.78° C 56% 1018.7 hPa 0 mm - - -
1787731632 27.78° C 56% 1018.7 hPa 0 mm - - -
1787730732 27.22° C 57% 1018.5 hPa 0 mm - - -
1787729959 26.67° C 60% 1018.5 hPa 0 mm - - -
1787729833 26.67° C 60% 1018.5 hPa 0 mm - - -
1787728935 26.67° C 60% 1018.2 hPa 0 mm - - -
1787728101 26.11° C 58% 1018.4 hPa 0 mm - - -
1787728063 26.11° C 58% 1018.4 hPa 0 mm - - -
1787728032 26.11° C 58% 1018.4 hPa 0 mm - - -
1787727134 25° C 58% 1018.3 hPa 0 mm - - -
1787726265 24.44° C 61% 1018.2 hPa 0 mm - - -
1787726232 24.44° C 61% 1018.2 hPa 0 mm - - -
1787725375 25.56° C 62% 1017.8 hPa 0 mm - - -
1787725333 25.56° C 62% 1017.8 hPa 0 mm - - -
1787724433 25° C 61% 1017.9 hPa 0 mm - - -

* Rain latest hour (hover to see other rain measurements)
** Current wind speed in m/s (hover to see current wind gust speed)